Regional Weather Roundup
Issued by NWS Newport/Morehead, NC

Current Version | Previous Version | Graphics & Text | Print | Product List | Glossary Off
Versions: 1 2 3 4 5 6 7 8 9 10 11 12 13 14 15 16 17 18 19 20 21 22 23 24 25 26 27 28 29 30 31 32 33 34 35 36 37 38 39 40 41 42 43 44 45 46 47 48 49 50

344
ASUS42 KMHX 211425
RWRMHX
WEATHER ROUNDUP FOR EASTERN NORTH CAROLINA
NATIONAL WEATHER SERVICE NEWPORT/MOREHEAD CITY NC
1000 AM EDT MON AUG 21 2017

NOTE: "FAIR" INDICATES FEW OR NO CLOUDS BELOW 12,000 FEET
WITH NO SIGNIFICANT WEATHER AND/OR OBSTRUCTIONS TO VISIBILITY

NCZ015>017-031-032-045>047-102-103-211500-
NORTH COAST

CITY           SKY/WX    TMP DP  RH WIND       PRES   REMARKS
EDENTON        PTSUNNY   84  77  78 CALM      30.23S
ELIZABETH CITY MOSUNNY   83  76  79 E8        30.23S
KITTY HAWK     CLOUDY    81  75  83 CALM      30.22S
MANTEO         PTSUNNY   81  75  82 E7        30.23S

$$

NCZ045>047-081-094-103-104-211500-
CENTRAL COAST

CITY           SKY/WX    TMP DP  RH WIND       PRES   REMARKS
FRISCO         MOSUNNY   85  77  77 E8        30.21S

$$

NCZ095-097-098-100-101-211500-
SOUTHERN COAST

CITY           SKY/WX    TMP DP  RH WIND       PRES   REMARKS
BEAUFORT       CLOUDY    83  78  85 NE6       30.20S
CEDAR ISLAND   NOT AVBL
JACKSONVILLE   CLOUDY    82  78  88 E6        30.21S
PINEY ISLAND   MOSUNNY  N/A N/A N/A NE10      30.21S
WILMINGTON     PTSUNNY   86  79  79 NE9       30.20R


$$

NCZ011>013-027>030-043-044-078>080-089-090>093-098-211500-
COASTAL PLAIN

CITY           SKY/WX    TMP DP  RH WIND       PRES   REMARKS
AHOSKIE          N/A     77  76  96 SE3       30.23S
CLINTON        CLOUDY    79  77  94 E6        30.22S
ELIZABETHTOWN  NOT AVBL
GOLDSBORO      MOSUNNY   79  79 100 E5        30.21S
GREENVILLE     CLOUDY    77  77 100 E6        30.24S
HAVELOCK       PTSUNNY   84  77  79 NE7       30.22R
KENANSVILLE    CLOUDY    77  75  94 E3        30.23R
KINSTON        NOT AVBL
NEW BERN       PTSUNNY   81  79  94 NE7       30.23R
RICHLANDS      PTSUNNY   81  75  83 NE6       30.23R
ROCKY MOUNT    SUNNY     82  77  84 CALM      30.22F
WASHINGTON     MOSUNNY   78  75  91 E3        30.23S
WHITEVILLE     CLOUDY    83  77  81 E6        30.20R

$$

AMZ130-135-150-152-154-156-158-170-250-252-270-ANZ085-086-088-633-658-670-211500-
MARINE OBSERVATIONS

STATION/POSITION TIME  TEMP    WIND        PRES    WAVE   SWELL
                       AIR SEA DIR/SP/G            HT/PER HT/PER
                 (UTC) (F)     (DEG/KT/KT) (MB)    (FT/S) (FT/S)
CHESAPEAKE LIGHT NOT AVBL
64 E VA BEACH    1250   79 79  100/ 10/ 10 1023.7    2/ 8   2/ 8
DUCK             1400   82 77  110/  5/  6 1023.2
2 E DUCK         1400      80                N/A     2/ 8
OREGON INLET     1400   80 81   50/  6/  8 1023.2
13E OREGON INLT  1348      80                N/A     2/ 8   2/ 8
HATTERAS CG      1400   83 79  100/  6/ 11 1023.0
DIAMOND BUOY     1250   83 85   40/ 10/ 12 1022.7    2/ 9   2/ 9
CAPE LOOKOUT     1300   82      50/ 10/ 11 1022.2
BEAUFORT LAB     1400   82 81   60/  5/  7 1022.1
30 SE NEW RVR IN 1408   76 84  340/ 17/ 23 1022.8
30 SE NEW RVR IN 1343      84                N/A     2/ 8
27 SE WRIGHTSVLE 1408   82 84  360/  6/ 14 1022.6
5 SE WRIGHTSVLE  1408   81 83  130/ 10/ 14 1022.5
225 S CAPE HAT   1250   83 84  140/  6/  6 1022.4    3/10   3/10
41 SE CHARLESTON 1340   83      70/  6/  8 1021.2

$$




USA.gov is the U.S. government's official web portal to all federal, state and local government web resources and services.